sat.trackr.live / text

‹ back to catalog

STARLINK-35817

NORAD 66357 · 2025-254K

PAYLOAD ACTIVE UNKNOWN

§ Identity

Operator
Country
US
Launch date
2025-11-06
Launch site
AFWTR
Launch vehicle
Mass (kg)
RCS (m²)

Purposes: comms

External: N2YO · Heavens-Above · Gunter

§ Orbital elements

Epoch: 2026-09-20T21:51:00.022752Z

Period
93.85 min
Inclination
53.1603°
Eccentricity
0.0001111
Mean motion
15.34407643 rev/d
Perigee alt
461.9 km
Apogee alt
463.4 km
Semi-major
6,840.8 km
B*
2.6312e-4
RAAN
43.6317°
Arg perigee
83.1539°
Mean anomaly
276.9590°
Rev number
4,889

§ Raw data

STARLINK-358171 66357U 25254K   26263.91041693  .00008526  00000+0  26312-3 0  99942 66357  53.1603  43.6317 0001111  83.1539 276.9590 15.34407643 48898

JSON: /api/v1/satellites/66357 · /tle

For live sub-satellite position, see the globe view (requires WebGL).

§ Visibility from observer

Set your observer location to see the next 7 days of passes ≥ 10°. The values pass through the URL so the page stays shareable.

No JS? Fill the form by hand. The geolocation button needs JavaScript.